Pratica di Mare, Italy

11:02 AM CET on December 11, 2017 (GMT +0100)
Pratica Di Mare Mil

Weather History for LIRE - March, 2013

Change the Weather History Date:

Monday, March 18, 2013

  Actual Average Record
Temperature  
Mean Temperature 52 °F -  
Max Temperature 57 °F 61 °F 69 °F (2011)
Min Temperature 48 °F 44 °F 32 °F (2011)
Degree Days  
Heating Degree Days 12    
Growing Degree Days 2 (Base 50)    
Moisture  
Dew Point 50 °F    
Average Humidity 86    
Maximum Humidity 95    
Minimum Humidity 61    
Precipitation  
Precipitation 0.31 in 0.09 in - ()
Sea Level Pressure  
Sea Level Pressure 29.60 in    
Wind  
Wind Speed 19 mph ()    
Max Wind Speed 26 mph    
Max Gust Speed 43 mph    
Visibility 6.3 miles    
Events Rain    
Averages and records for this station are not official NWS values.
T = Trace of Precipitation, MM = Missing Value Source: Averaged Metar Reports

Daily Weather History Graph

Daily Weather History Graph

Search for Another Location

Airport or City:

Trip Planner

Search our weather history database for the weather conditions in past years. The results will help you decide how hot, cold, wet, or windy it might be!

Date:

Astronomy

Mar. 18, 2013 Rise Set
Actual Time 6:17 AM CET 6:20 PM CET
Civil Twilight 5:49 AM CET 6:47 PM CET
Nautical Twilight 5:17 AM CET 7:20 PM CET
Astronomical Twilight 4:44 AM CET 7:53 PM CET
Moon 9:58 AM CET (3/18) 12:09 AM CET (3/18)
Length of Visible Light 12h 58m
Length of Day
12h 03m
Waxing Crescent, 38% of the Moon is Illuminated
Mar 18
Waxing Crescent
Mar 19
First Quarter
Mar 27
Full
Apr 3
Last Quarter
Apr 10
New

Hourly Weather History & Observations

Time (CET) Temp. Dew Point Humidity Pressure Visibility Wind Dir Wind Speed Gust Speed Precip Events Conditions
12:55 AM 50.0 °F 48.2 °F 94% 29.74 in 6.2 mi ESE 18.4 mph - N/A Rain Light Rain
1:00 AM 49 °F 48 °F 94% 29.76 in 6 mi ESE 18.4 mph - - Rain Light Rain
2:55 AM 50.0 °F 48.2 °F 94% 29.65 in 6.2 mi ESE 26.5 mph - N/A Rain Light Rain
4:00 AM 51 °F 50 °F 95% 29.66 in 6 mi ESE 25.3 mph - -   Partly Cloudy
5:55 AM 53.6 °F 51.8 °F 94% 29.62 in 6.2 mi SE 21.9 mph 35.7 mph N/A Rain Light Rain
6:55 AM 53.6 °F 51.8 °F 94% 29.62 in 6.2 mi SE 23.0 mph - N/A Rain Light Rain
7:00 AM 53 °F 52 °F 93% 29.65 in 6 mi SE 23.0 mph - - Rain Light Rain
7:55 AM 53.6 °F 51.8 °F 94% 29.62 in 6.2 mi SE 21.9 mph - N/A Rain Light Rain
8:02 AM 53.6 °F 51.8 °F 94% 29.62 in 6.2 mi ESE 24.2 mph 35.7 mph N/A Rain Light Rain
9:07 AM 53.6 °F 51.8 °F 94% 29.59 in 6.2 mi ESE 23.0 mph 35.7 mph N/A Rain Light Rain
9:55 AM 55.4 °F 53.6 °F 94% 29.56 in 6.2 mi ESE 25.3 mph - N/A   Light Drizzle
10:00 AM 56 °F 54 °F 91% 29.57 in 6 mi ESE 25.3 mph - - Rain Light Drizzle
10:02 AM 55.4 °F 53.6 °F 94% 29.56 in 6.2 mi SE 26.5 mph 42.6 mph N/A   Light Drizzle
11:34 AM 57.2 °F 53.6 °F 88% 29.56 in 2.5 mi SE 23.0 mph - N/A Rain Light Rain
11:55 AM 55.4 °F 53.6 °F 94% 29.56 in 3.1 mi SE 21.9 mph - N/A Rain Light Rain
1:00 PM 55 °F 53 °F 92% 29.52 in 3 mi ESE 25.3 mph - - Rain Light Rain
3:55 PM 57.2 °F 55.4 °F 94% 29.50 in 3.7 mi SSE 15.0 mph - N/A   Mostly Cloudy
4:00 PM 57 °F 55 °F 92% 29.52 in 4 mi SSE 15.0 mph - - Rain Light Rain
4:30 PM 57.2 °F 55.4 °F 94% 29.50 in 3.7 mi WSW 11.5 mph - N/A   Mostly Cloudy
5:55 PM 55.4 °F 48.2 °F 77% 29.53 in 6.2 mi WSW 12.7 mph - N/A   Scattered Clouds
6:34 PM 53.6 °F 44.6 °F 72% 29.56 in 6.2 mi West 25.3 mph - N/A   Scattered Clouds
7:00 PM 54 °F 44 °F 61% 29.58 in 16 mi West 21.9 mph - -   Partly Cloudy
8:55 PM 51.8 °F 42.8 °F 71% 29.59 in 6.2 mi West 21.9 mph - N/A   Partly Cloudy
9:55 PM 51.8 °F 44.6 °F 76% 29.62 in - West 17.3 mph - N/A   Clear
10:00 PM 53 °F 44 °F 62% 29.64 in 16 mi West 17.3 mph - -  
10:55 PM 51.8 °F 42.8 °F 71% 29.65 in - West 19.6 mph - N/A   Clear
11:55 PM 53.6 °F 44.6 °F 72% 29.65 in - West 19.6 mph - N/A   Clear